Location: Altavilla Irpina
(41.0000°N, 14.7833°E)
Time: 10:03:21
(UTC+00:00)

Meteor 1-14 Rocket - Pass Details

Date: 19 May 2025
Orbit: 833 x 917 km, 81.3° (Epoch: 23 June)

Event Time Altitude Azimuth Distance (km) Brightness Sun altitude
Rises 21:14:53 0° 348° (NNW) 3,412 8.6 -24.6°
Reaches altitude 10° 21:17:17 10° 347° (NNW) 2,482 7.6 -24.8°
Maximum altitude 21:22:54 75° 263° (W) 893 4.2 -25.2°
Enters shadow 21:23:55 60° 200° (SSW) 987 4.2 -25.3°
